This demonstration page uses our WeatherBlox Daily Observations layout. Learn more.

Left ArrowRight Arrow

41.86663, -103.66717

Hourly Observations for March 12, 2016

Temp ( °F °C ) Dew Point ( °F °C ) Humidity (%) Winds ( mph kmh ) Pressure ( in mb ) Visibility ( mi km ) Precip ( " mm )
12:53 am 00:53 Clear 52 11.1 27 -2.8 38 38 SE 9 15 29.78 1009 10 16 N/A
1:53 am 01:53 Clear 45 7.2 29 -1.7 54 54 E 9 15 29.77 1008 10 16 N/A
2:53 am 02:53 Clear 43 6.1 30 -1.1 60 60 E 8 13 29.75 1007 10 16 N/A
3:53 am 03:53 Clear 42 5.6 29 -1.7 60 60 ESE 12 19 29.72 1007 10 16 N/A
4:53 am 04:53 Clear 39 3.9 27 -2.8 62 62 ESE 14 22 29.73 1007 10 16 N/A
5:53 am 05:53 Clear 37 2.8 26 -3.3 65 65 ESE 10 17 29.76 1008 10 16 N/A
6:53 am 06:53 Sunny 39 3.9 26 -3.3 60 60 ESE 10 17 29.78 1008 10 16 N/A
7:53 am 07:53 Sunny 48 8.9 27 -2.8 44 44 ESE 12 19 29.75 1007 10 16 N/A
8:53 am 08:53 Sunny 52 11.1 26 -3.3 37 37 SE 12 19 29.72 1007 10 16 N/A
9:53 am 09:53 Sunny 59 15 26 -3.3 28 28 SSE 7 11 29.67 1005 10 16 N/A
10:53 am 10:53 Sunny 66 18.9 26 -3.3 22 22 SSE 15 24 29.63 1003 10 16 N/A
11:53 am 11:53 Sunny 69 20.6 28 -2.2 22 22 SSE 15 24 29.60 1002 10 16 N/A
12:53 pm 12:53 Sunny 70 21.1 27 -2.8 20 20 S 12 19 29.57 1001 10 16 N/A
1:53 pm 13:53 Sunny 73 22.8 27 -2.8 18 18 SSW 15 24 29.54 1000 10 16 N/A
2:53 pm 14:53 Sunny 73 22.8 26 -3.3 17 17 ESE 13 20 29.52 1000 10 16 N/A
3:53 pm 15:53 Sunny 71 21.7 28 -2.2 20 20 ESE 17 28 29.52 1000 10 16 N/A
4:53 pm 16:53 Sunny 69 20.6 29 -1.7 22 22 ESE 14 22 29.54 1001 10 16 N/A
5:53 pm 17:53 Sunny 58 14.4 33 0.6 39 39 E 8 13 29.60 1002 10 16 N/A
6:53 pm 18:53 Clear 53 11.7 34 1.1 48 48 E 9 15 29.63 1003 10 16 N/A
7:53 pm 19:53 Clear 53 11.7 36 2.2 52 52 ESE 10 17 29.61 1003 10 16 N/A
8:53 pm 20:53 Mostly Clear 50 10 37 2.8 61 61 E 12 19 29.62 1003 10 16 N/A
9:53 pm 21:53 Clear 49 9.4 38 3.3 66 66 E 13 20 29.62 1003 10 16 N/A
10:53 pm 22:53 Clear 47 8.3 40 4.4 77 77 WSW 5 7 29.61 1003 10 16 N/A
11:53 pm 23:53 Mostly Clear 46 7.8 40 4.4 79 79 N N/A 29.61 1003 10 16 N/A

Powered by AerisWeather